Location: *
(50.2903°S, 172.5375°W)
Time: 17:01:13
(UTC+00:00)

Starlink Launch 2 trailer - Pass Details

Date: 17 November 2019
Orbit: 279 x 281 km, 53.0° (Epoch: 13 November)

Event Time Altitude Azimuth Distance (km) Brightness Sun altitude
Exits shadow 13:17:10 18° 51° (NE) 823 4.4 -15.7°
Drops below altitude 10° 13:17:58 10° 55° (NE) 1,144 5.2 -15.6°
Sets 13:19:53 0° 58° (ENE) 1,958 6.4 -15.4°
